London-Corbin, KY

1:55 PM EST on December 15, 2019 (GMT -0500)
London-Corbin / McKee

Weather History for KLOZ - November, 2019

Change the Weather History Date:

Tuesday, November 12, 2019

  Actual Average Record
Temperature  
Mean Temperature 26 °F 49 °F  
Max Temperature 34 °F 60 °F 76 °F (1978)
Min Temperature 17 °F 38 °F 17 °F (2019)
Degree Days  
Heating Degree Days 39 16  
Month to date heating degree days 273 174  
Since 1 July heating degree days 484 480  
Cooling Degree Days 0 0  
Month to date cooling degree days 0 0  
Year to date cooling degree days 1484 1188  
Moisture  
Dew Point 23 °F    
Average Humidity 82    
Maximum Humidity 96    
Minimum Humidity 68    
Precipitation  
Precipitation 0.04 in 0.12 in 3.53 in (1975)
Month to date precipitation 0.70 1.36  
Sea Level Pressure  
Sea Level Pressure 30.25 in    
Wind  
Wind Speed 9 mph (NNW)    
Max Wind Speed 18 mph    
Max Gust Speed 26 mph    
Visibility 5 miles    
Events Snow    
T = Trace of Precipitation, MM = Missing Value Source: NWS Daily Summary

Daily Weather History Graph

Daily Weather History Graph

Search for Another Location

Airport or City:

Astronomy

Nov. 12, 2019 Rise Set
Actual Time 7:11 AM EST 5:28 PM EST
Civil Twilight 6:44 AM EST 5:56 PM EST
Nautical Twilight 6:12 AM EST 6:27 PM EST
Astronomical Twilight 5:42 AM EST 6:58 PM EST
Moon 5:54 PM EST (11/12) 7:03 AM EST (11/12)
Length of Visible Light 11h 12m
Length of Day
10h 17m
Full, 100% of the Moon is Illuminated
Nov 12
Full
Nov 19
Last Quarter
Nov 26
New
Dec 4
First Quarter
Dec 12
Full

Hourly Weather History & Observations

Time (EST) Temp. Windchill Dew Point Humidity Pressure Visibility Wind Dir Wind Speed Gust Speed Precip Events Conditions
12:12 AM 33.1 °F 24.4 °F 30.9 °F 92% 30.11 in 5.0 mi NNW 11.5 mph 20.7 mph 0.00 in Snow Light Snow
12:20 AM 33.1 °F 25.5 °F 30.0 °F 89% 30.11 in 5.0 mi NNW 9.2 mph 20.7 mph 0.00 in Snow Light Snow
12:53 AM 33.1 °F 28.7 °F 30.9 °F 92% 30.13 in 3.0 mi NW 4.6 mph - 0.01 in Snow Light Snow
12:56 AM 33.1 °F 28.7 °F 30.9 °F 92% 30.13 in 2.5 mi NW 4.6 mph - 0.00 in Snow Light Snow
1:07 AM 33.1 °F 25.5 °F 30.9 °F 92% 30.14 in 4.0 mi NW 9.2 mph - 0.00 in Snow Light Snow
1:17 AM 32.0 °F 27.5 °F 30.9 °F 96% 30.14 in 2.5 mi WNW 4.6 mph - 0.01 in Snow Light Snow
1:27 AM 32.0 °F 24.8 °F 30.9 °F 96% 30.14 in 1.8 mi NW 8.1 mph - 0.01 in Snow Light Snow
1:53 AM 32.0 °F 21.6 °F 28.9 °F 88% 30.15 in 1.8 mi NNW 15.0 mph 20.7 mph 0.02 in Snow Light Snow
1:56 AM 32.0 °F 22.5 °F 28.9 °F 88% 30.14 in 2.0 mi NNW 12.7 mph 21.9 mph 0.00 in Snow Light Snow
2:35 AM 30.9 °F 23.5 °F 28.9 °F 92% 30.15 in 2.0 mi NW 8.1 mph - 0.00 in Snow Light Snow
2:37 AM 30.9 °F 22.2 °F 28.9 °F 92% 30.15 in 1.8 mi NNW 10.4 mph 17.3 mph 0.00 in Snow Light Snow
2:44 AM 30.9 °F 23.5 °F 28.9 °F 92% 30.15 in 2.0 mi North 8.1 mph - 0.00 in Snow Light Snow
2:53 AM 30.9 °F 22.2 °F 28.9 °F 92% 30.16 in 6.0 mi NNW 10.4 mph - 0.00 in Snow Light Snow
3:04 AM 30.9 °F 22.2 °F 28.9 °F 92% 30.15 in 2.5 mi NNW 10.4 mph - 0.00 in Snow Light Snow
3:07 AM 30.9 °F 22.8 °F 28.9 °F 92% 30.15 in 1.8 mi NNW 9.2 mph - 0.00 in Snow Light Snow
3:24 AM 30.0 °F 20.5 °F 28.0 °F 92% 30.16 in 1.2 mi NNW 11.5 mph 17.3 mph 0.00 in Snow Light Snow
3:31 AM 30.0 °F 21.1 °F 28.0 °F 92% 30.16 in 1.5 mi NNW 10.4 mph 17.3 mph 0.00 in Snow Light Snow
3:49 AM 30.2 °F 20.2 °F 28.4 °F 93% 30.16 in 2.0 mi NNW 12.7 mph - 0.01 in Snow Light Snow
3:50 AM 30.0 °F 18.7 °F 28.0 °F 92% 30.17 in 2.0 mi NNW 16.1 mph 26.5 mph 0.01 in Snow Light Snow
3:56 AM 30.0 °F 18.7 °F 27.0 °F 88% 30.16 in 3.0 mi North 16.1 mph 26.5 mph 0.00 in Snow Light Snow
4:22 AM 28.9 °F 19.2 °F 26.1 °F 89% 30.17 in 2.5 mi North 11.5 mph - 0.00 in Snow Light Snow
4:29 AM 28.9 °F 19.8 °F 26.1 °F 89% 30.17 in 4.0 mi North 10.4 mph - 0.00 in Snow Light Snow
4:40 AM 28.9 °F 19.8 °F 26.1 °F 89% 30.18 in 10.0 mi NNW 10.4 mph - 0.00 in   Overcast
4:53 AM 28.9 °F 20.4 °F 26.1 °F 89% 30.19 in 8.0 mi NNW 9.2 mph - 0.00 in   Overcast
5:00 AM 28.9 °F 19.8 °F 25.0 °F 85% 30.19 in 4.0 mi NNW 10.4 mph - 0.00 in Snow Light Snow
5:53 AM 28.0 °F 18.1 °F 24.1 °F 85% 30.23 in 10.0 mi North 11.5 mph 20.7 mph 0.00 in   Overcast
6:19 AM 28.0 °F 17.0 °F 23.0 °F 81% 30.23 in 10.0 mi North 13.8 mph 23.0 mph N/A   Overcast
6:53 AM 28.0 °F 20.8 °F 24.1 °F 85% 30.25 in 10.0 mi North 6.9 mph - 0.00 in   Overcast
7:53 AM 27.0 °F 16.1 °F 23.0 °F 85% 30.28 in 5.0 mi NNW 12.7 mph 19.6 mph 0.00 in Snow Light Snow
8:01 AM 26.1 °F 15.6 °F 23.0 °F 88% 30.27 in 3.0 mi NNW 11.5 mph - 0.00 in Snow Light Snow
8:08 AM 26.1 °F 16.2 °F 21.9 °F 84% 30.27 in 3.0 mi NNW 10.4 mph - 0.00 in Snow Light Snow
8:36 AM 26.1 °F 16.8 °F 21.9 °F 84% 30.29 in 7.0 mi North 9.2 mph - 0.00 in   Overcast
8:53 AM 26.1 °F 15.6 °F 19.9 °F 78% 30.31 in 9.0 mi North 11.5 mph - 0.00 in   Overcast
9:53 AM 25.0 °F 14.8 °F 21.0 °F 85% 30.33 in 4.0 mi NW 10.4 mph - 0.00 in   Overcast
10:19 AM 25.0 °F 13.6 °F 19.0 °F 78% 30.31 in 6.0 mi NW 12.7 mph - 0.00 in   Haze
10:53 AM 25.0 °F 16.3 °F 18.0 °F 75% 30.34 in 10.0 mi NNW 8.1 mph - 0.00 in   Overcast
11:53 AM 24.1 °F 12.5 °F 17.1 °F 75% 30.35 in 10.0 mi NNW 12.7 mph 20.7 mph N/A   Overcast
12:53 PM 23.0 °F 12.4 °F 17.1 °F 78% 30.35 in 10.0 mi NW 10.4 mph 21.9 mph N/A   Overcast
1:53 PM 23.0 °F 13.1 °F 16.0 °F 74% 30.36 in 10.0 mi NNW 9.2 mph - N/A   Overcast
2:53 PM 23.0 °F 13.9 °F 16.0 °F 74% 30.37 in 7.0 mi NNW 8.1 mph - 0.00 in Snow Light Snow
3:40 PM 21.9 °F 12.5 °F 17.1 °F 82% 30.34 in 1.8 mi NNW 8.1 mph - 0.00 in Snow Light Snow
3:53 PM 21.9 °F 13.4 °F 17.1 °F 82% 30.38 in 2.0 mi NW 6.9 mph - 0.00 in Snow Light Snow
4:10 PM 21.9 °F 11.0 °F 16.0 °F 78% 30.34 in 5.0 mi NNW 10.4 mph - 0.00 in Snow Light Snow
4:29 PM 21.9 °F 10.4 °F 15.1 °F 75% 30.34 in 4.0 mi North 11.5 mph - 0.00 in Snow Light Snow
4:53 PM 21.9 °F 12.5 °F 15.1 °F 75% 30.39 in 9.0 mi NNW 8.1 mph - 0.00 in   Overcast
5:32 PM 21.9 °F 12.5 °F 16.0 °F 78% 30.35 in 2.0 mi North 8.1 mph - 0.00 in Snow Light Snow
5:35 PM 21.9 °F 13.4 °F 16.0 °F 78% 30.36 in 3.0 mi NNW 6.9 mph - 0.00 in Snow Light Snow
5:53 PM 21.9 °F 11.7 °F 14.0 °F 72% 30.40 in 10.0 mi North 9.2 mph - 0.00 in   Overcast
6:53 PM 21.0 °F 13.4 °F 15.1 °F 78% 30.43 in 10.0 mi NNW 5.8 mph - N/A   Overcast
7:53 PM 21.0 °F 13.4 °F 12.0 °F 68% 30.44 in 10.0 mi North 5.8 mph - N/A   Overcast
8:53 PM 19.9 °F 13.4 °F 12.0 °F 71% 30.45 in 10.0 mi NNE 4.6 mph - N/A   Overcast
9:53 PM 19.0 °F - 12.9 °F 77% 30.45 in 10.0 mi Calm Calm - N/A   Clear
10:53 PM 18.0 °F 11.1 °F 14.0 °F 84% 30.44 in 10.0 mi North 4.6 mph - N/A   Clear